Weather History for 98755 - December, 2012

Change the Weather History Date:

Monday, December 3, 2012

  Actual Average Record
Temperature  
Mean Temperature 82 °F -  
Max Temperature 87 °F - - ()
Min Temperature 76 °F - - ()
Cooling Degree Days 16    
Growing Degree Days 32 (Base 50)    
Moisture  
Dew Point 76 °F    
Average Humidity 86    
Maximum Humidity 94    
Minimum Humidity 63    
Precipitation  
Precipitation 1.10 in - - ()
Sea Level Pressure  
Sea Level Pressure 29.80 in    
Wind  
Wind Speed 4 mph ()    
Max Wind Speed 11 mph    
Max Gust Speed -    
Visibility 12.4 miles    
Events Rain    
T = Trace of Precipitation, MM = Missing Value Source: Averaged Metar Reports

Daily Weather History Graph

Daily Weather History Graph

Search for Another Location

Airport or City:

Trip Planner

Search our weather history database for the weather conditions in past years. The results will help you decide how hot, cold, wet, or windy it might be!

Date:

Astronomy

Dec. 03, 2012 Rise Set
Actual Time 5:34 AM PHT 5:14 PM PHT
Civil Twilight 5:11 AM PHT 5:37 PM PHT
Nautical Twilight 4:45 AM PHT 6:03 PM PHT
Astronomical Twilight 4:19 AM PHT 6:29 PM PHT
Moon 9:02 PM PHT (12/3) 8:56 AM PHT (12/3)
Length of Visible Light 12h 25m
Length of Day
11h 40m
Waning Gibbous, 82% of the Moon is Illuminated
Dec 3
Waning Gibbous
Dec 6
Last Quarter
Dec 13
New
Dec 20
First Quarter
Dec 28
Full

Hourly Weather History & Observations

Time (PHT) Temp. Dew Point Humidity Pressure Visibility Wind Dir Wind Speed Gust Speed Precip Events Conditions
12:00 AM 77 °F 75 °F 92% 29.82 in 16 mi West 2.2 mph - -   Scattered Clouds
1:00 AM 77 °F 75 °F 90% 29.81 in 16 mi West 4.5 mph - -   Scattered Clouds
2:00 AM 76 °F 74 °F 93% 29.80 in 16 mi West 4.5 mph - -   Scattered Clouds
3:00 AM 76 °F 74 °F 93% 29.79 in 16 mi West 4.5 mph - -   Scattered Clouds
4:00 AM 76 °F 74 °F 91% 29.79 in 16 mi West 4.5 mph - -   Scattered Clouds
5:00 AM 76 °F 74 °F 91% 29.81 in 16 mi West 2.2 mph - -   Scattered Clouds
8:00 AM 81 °F 75 °F 78% 29.85 in 11 mi NW 2.2 mph - -   Haze
9:00 AM 84 °F 77 °F 74% 29.83 in 11 mi NW 4.5 mph - -   Haze
10:00 AM 88 °F 78 °F 67% 29.83 in 11 mi North 4.5 mph - -   Haze
11:00 AM 90 °F 79 °F 63% 29.82 in 11 mi North 6.7 mph - -   Haze
12:00 PM 85 °F 79 °F 79% 29.80 in 11 mi North 4.5 mph - - Rain Light Rain Showers
1:00 PM 78 °F 75 °F 88% 29.78 in 11 mi NW 4.5 mph - - Rain Light Rain Showers
2:00 PM 79 °F 76 °F 87% 29.78 in 9 mi NW 4.5 mph - - Rain Light Rain Showers
3:00 PM 80 °F 76 °F 86% 29.77 in 16 mi NW 4.5 mph - -   Overcast
4:00 PM 80 °F 76 °F 85% 29.77 in 16 mi North 4.5 mph - -   Overcast
5:00 PM 80 °F 76 °F 84% 29.78 in 16 mi Calm Calm - -   Overcast
6:00 PM 79 °F 77 °F 90% 29.77 in 12 mi West 4.5 mph - -   Overcast
7:00 PM 78 °F 76 °F 92% 29.80 in 6 mi NNE 11.2 mph - - Rain Heavy Rain Showers
8:00 PM 77 °F 76 °F 94% 29.82 in 9 mi NW 4.5 mph - - Rain Light Rain Showers
9:00 PM 77 °F 74 °F 90% 29.80 in 9 mi NW 4.5 mph - - Rain Light Rain Showers
10:00 PM 77 °F 75 °F 90% 29.79 in 9 mi West 6.7 mph - - Rain Light Rain Showers
11:00 PM 77 °F 74 °F 90% 29.74 in 9 mi NW 8.9 mph - - Rain Light Rain Showers